Location: Marcé
(47.5801°N, 0.3280°W)
Time: 12:56:48
(UTC+01:00)

Tiros 1 - Pass Details

Date: 06 December 2021
Orbit: 630 x 663 km, 48.4° (Epoch: 20 January)

Event Time Altitude Azimuth Distance (km) Brightness Sun altitude
Rises 18:54:53 0° 230° (SW) 2,910 11.7 -16.8°
Reaches altitude 10° 18:57:15 10° 224° (SW) 2,008 10.6 -17.2°
Maximum altitude 19:01:40 46° 152° (SSE) 857 7.6 -17.9°
Enters shadow 19:03:10 34° 104° (ESE) 1,062 7.8 -18.2°
